When you browse on this site, cookies collect data to enhance your experience and personalize the content and advertising you see.
Visit our Privacy Policy to learn more. By continuing to use the site, you agree to this use of cookies and data.
  • In Österreich
  • Länderverzeichnis
  • Für 7 Tage
  • Wassertemperatur
  • Satellitenkarten
  • Wetterkarte
  • News
  • Widgets
  • user-avatar
    Anmelden

    Stündliche Wetter Solwesi

    Heute, 18 November, Sonntag

    Zeit Temperatur Niederschläge Wind Luftdruck Luftfeuchtigkeit
    00:00 +26°C° 0 mm 3 m/S 715 mmHg 20%
    01:00 +25°C° 0 mm 3 m/S 715 mmHg 21%
    02:00 +24°C° 0 mm 3 m/S 715 mmHg 22%
    03:00 +24°C° 0 mm 3 m/S 715 mmHg 23%
    04:00 +24°C° 0 mm 3 m/S 715 mmHg 23%
    05:00 +22°C° 0 mm 3 m/S 715 mmHg 24%
    06:00 +23°C° 0 mm 4 m/S 715 mmHg 23%
    07:00 +25°C° 0 mm 5 m/S 716 mmHg 21%
    08:00 +26°C° 0 mm 5 m/S 716 mmHg 20%
    09:00 +29°C° 0 mm 5 m/S 716 mmHg 18%
    10:00 +32°C° 0 mm 5 m/S 716 mmHg 16%
    11:00 +34°C° 0 mm 5 m/S 716 mmHg 14%
    12:00 +35°C° 0 mm 4 m/S 716 mmHg 13%
    13:00 +36°C° 0 mm 4 m/S 715 mmHg 13%
    14:00 +36°C° 0 mm 4 m/S 714 mmHg 12%
    15:00 +36°C° 0 mm 4 m/S 714 mmHg 13%
    16:00 +36°C° 0 mm 4 m/S 714 mmHg 13%
    17:00 +35°C° 0 mm 4 m/S 714 mmHg 14%
    18:00 +33°C° 0 mm 3 m/S 714 mmHg 15%
    19:00 +30°C° 0 mm 3 m/S 714 mmHg 17%
    20:00 +29°C° 0 mm 3 m/S 714 mmHg 18%
    21:00 +28°C° 0 mm 3 m/S 714 mmHg 19%
    22:00 +27°C° 0 mm 4 m/S 714 mmHg 20%
    23:00 +27°C° 0 mm 4 m/S 714 mmHg 20%

    Morgen, 19 November, Montag

    Zeit Temperatur Niederschläge Wind Luftdruck Luftfeuchtigkeit
    00:00 +26°C° 0 mm 4 m/S 714 mmHg 21%
    01:00 +26°C° 0 mm 4 m/S 714 mmHg 21%
    02:00 +25°C° 0 mm 4 m/S 714 mmHg 22%
    03:00 +23°C° 0 mm 4 m/S 714 mmHg 23%
    04:00 +23°C° 0 mm 4 m/S 714 mmHg 23%
    05:00 +22°C° 0 mm 4 m/S 714 mmHg 24%
    06:00 +25°C° 0 mm 5 m/S 714 mmHg 23%
    07:00 +26°C° 0 mm 5 m/S 715 mmHg 21%
    08:00 +27°C° 0 mm 6 m/S 715 mmHg 20%
    09:00 +29°C° 0 mm 6 m/S 716 mmHg 18%
    10:00 +32°C° 0 mm 6 m/S 716 mmHg 16%
    11:00 +35°C° 0 mm 6 m/S 716 mmHg 13%
    12:00 +36°C° 0 mm 6 m/S 715 mmHg 12%
    13:00 +37°C° 0 mm 5 m/S 715 mmHg 12%
    14:00 +39°C° 0 mm 5 m/S 714 mmHg 11%
    15:00 +37°C° 0 mm 5 m/S 714 mmHg 11%
    16:00 +36°C° 0 mm 5 m/S 713 mmHg 11%
    17:00 +36°C° 0 mm 5 m/S 713 mmHg 11%
    18:00 +34°C° 0 mm 5 m/S 713 mmHg 12%
    19:00 +32°C° 0 mm 4 m/S 713 mmHg 12%
    20:00 +28°C° 0 mm 4 m/S 713 mmHg 13%
    21:00 +28°C° 0 mm 5 m/S 714 mmHg 13%
    22:00 +27°C° 0 mm 5 m/S 714 mmHg 13%
    23:00 +26°C° 0 mm 5 m/S 714 mmHg 13%

    übermorgen, 20 November, Dienstag

    Zeit Temperatur Niederschläge Wind Luftdruck Luftfeuchtigkeit
    00:00 +25°C° 0 mm 5 m/S 714 mmHg 14%
    01:00 +25°C° 0 mm 5 m/S 714 mmHg 15%
    02:00 +23°C° 0 mm 5 m/S 714 mmHg 17%
    03:00 +22°C° 0 mm 5 m/S 714 mmHg 18%
    04:00 +22°C° 0 mm 5 m/S 714 mmHg 19%
    05:00 +21°C° 0 mm 5 m/S 714 mmHg 21%
    06:00 +23°C° 0 mm 5 m/S 714 mmHg 20%
    07:00 +24°C° 0 mm 6 m/S 715 mmHg 20%
    08:00 +26°C° 0 mm 7 m/S 715 mmHg 20%
    09:00 +28°C° 0 mm 7 m/S 716 mmHg 18%
    10:00 +30°C° 0 mm 7 m/S 716 mmHg 16%
    11:00 +33°C° 0 mm 7 m/S 716 mmHg 14%
    12:00 +34°C° 0 mm 7 m/S 715 mmHg 13%
    13:00 +35°C° 0 mm 6 m/S 715 mmHg 11%
    14:00 +36°C° 0 mm 6 m/S 714 mmHg 10%
    15:00 +36°C° 0 mm 5 m/S 713 mmHg 10%
    16:00 +35°C° 0 mm 5 m/S 713 mmHg 10%
    17:00 +35°C° 0 mm 4 m/S 713 mmHg 11%
    18:00 +32°C° 0 mm 4 m/S 713 mmHg 12%
    19:00 +29°C° 0 mm 4 m/S 714 mmHg 14%
    20:00 +27°C° 0 mm 4 m/S 714 mmHg 15%
    21:00 +27°C° 0 mm 4 m/S 714 mmHg 16%
    22:00 +26°C° 0 mm 4 m/S 714 mmHg 16%
    23:00 +25°C° 0 mm 4 m/S 714 mmHg 17%

    21 November, Mittwoch

    Zeit Temperatur Niederschläge Wind Luftdruck Luftfeuchtigkeit
    00:00 +25°C° 0 mm 4 m/S 714 mmHg 18%
    01:00 +23°C° 0 mm 4 m/S 714 mmHg 18%
    02:00 +23°C° 0 mm 4 m/S 713 mmHg 19%
    03:00 +22°C° 0 mm 4 m/S 713 mmHg 19%
    04:00 +22°C° 0 mm 4 m/S 713 mmHg 20%
    05:00 +21°C° 0 mm 4 m/S 713 mmHg 20%
    06:00 +23°C° 0 mm 5 m/S 714 mmHg 20%
    07:00 +24°C° 0 mm 6 m/S 714 mmHg 19%
    08:00 +26°C° 0 mm 7 m/S 715 mmHg 19%
    09:00 +29°C° 0 mm 6 m/S 715 mmHg 17%
    10:00 +32°C° 0 mm 6 m/S 715 mmHg 16%
    11:00 +35°C° 0 mm 6 m/S 715 mmHg 15%
    12:00 +36°C° 0 mm 5 m/S 714 mmHg 14%
    13:00 +36°C° 0 mm 4 m/S 714 mmHg 13%
    14:00 +37°C° 0 mm 3 m/S 713 mmHg 12%
    15:00 +37°C° 0 mm 3 m/S 712 mmHg 13%
    16:00 +37°C° 0 mm 3 m/S 712 mmHg 13%
    17:00 +36°C° 0 mm 2 m/S 712 mmHg 14%
    18:00 +34°C° 0 mm 3 m/S 712 mmHg 15%
    19:00 +31°C° 0 mm 3 m/S 713 mmHg 17%
    20:00 +29°C° 0 mm 3 m/S 713 mmHg 19%
    21:00 +29°C° 0 mm 4 m/S 713 mmHg 20%
    22:00 +28°C° 0 mm 4 m/S 713 mmHg 21%
    23:00 +28°C° 0 mm 4 m/S 714 mmHg 22%

    22 November, Donnerstag

    Zeit Temperatur Niederschläge Wind Luftdruck Luftfeuchtigkeit
    00:00 +27°C° 0 mm 4 m/S 713 mmHg 23%
    01:00 +27°C° 0 mm 5 m/S 713 mmHg 24%
    02:00 +26°C° 0 mm 5 m/S 712 mmHg 25%
    03:00 +26°C° 0 mm 5 m/S 713 mmHg 27%
    04:00 +25°C° 0 mm 5 m/S 713 mmHg 28%
    05:00 +25°C° 0 mm 5 m/S 713 mmHg 30%
    06:00 +26°C° 0 mm 5 m/S 714 mmHg 29%
    07:00 +27°C° 0 mm 6 m/S 714 mmHg 27%
    08:00 +27°C° 0 mm 6 m/S 715 mmHg 26%
    09:00 +30°C° 0 mm 6 m/S 715 mmHg 23%
    10:00 +33°C° 0 mm 6 m/S 715 mmHg 20%
    11:00 +36°C° 0 mm 6 m/S 715 mmHg 18%
    12:00 +37°C° 0 mm 5 m/S 714 mmHg 16%
    13:00 +39°C° 0 mm 5 m/S 713 mmHg 15%
    14:00 +38°C° 0 mm 4 m/S 712 mmHg 14%
    15:00 +38°C° 0 mm 4 m/S 712 mmHg 14%
    16:00 +38°C° 0 mm 3 m/S 712 mmHg 14%
    17:00 +37°C° 0 mm 3 m/S 712 mmHg 15%
    18:00 +35°C° 0 mm 3 m/S 712 mmHg 16%
    19:00 +33°C° 0 mm 4 m/S 713 mmHg 17%
    20:00 +30°C° 0 mm 4 m/S 713 mmHg 19%
    21:00 +30°C° 0 mm 4 m/S 713 mmHg 19%
    22:00 +29°C° 0 mm 5 m/S 713 mmHg 19%
    23:00 +28°C° 0 mm 5 m/S 713 mmHg 19%

    23 November, Freitag

    Zeit Temperatur Niederschläge Wind Luftdruck Luftfeuchtigkeit
    00:00 +28°C° 0 mm 5 m/S 713 mmHg 19%
    01:00 +27°C° 0 mm 6 m/S 713 mmHg 20%
    02:00 +27°C° 0 mm 6 m/S 713 mmHg 20%
    03:00 +26°C° 0 mm 6 m/S 713 mmHg 20%
    04:00 +26°C° 0 mm 6 m/S 713 mmHg 21%
    05:00 +24°C° 0 mm 6 m/S 713 mmHg 21%
    06:00 +26°C° 0 mm 6 m/S 714 mmHg 19%
    07:00 +27°C° 0 mm 6 m/S 715 mmHg 17%
    08:00 +27°C° 0 mm 7 m/S 715 mmHg 16%
    09:00 +29°C° 0 mm 7 m/S 715 mmHg 14%
    10:00 +33°C° 0 mm 7 m/S 715 mmHg 12%
    11:00 +35°C° 0 mm 7 m/S 715 mmHg 10%
    12:00 +36°C° 0 mm 6 m/S 715 mmHg 10%
    13:00 +38°C° 0 mm 6 m/S 714 mmHg 9%
    14:00 +39°C° 0 mm 6 m/S 713 mmHg 9%
    15:00 +37°C° 0 mm 5 m/S 713 mmHg 9%
    16:00 +37°C° 0 mm 5 m/S 713 mmHg 9%
    17:00 +36°C° 0 mm 5 m/S 713 mmHg 9%
    18:00 +34°C° 0 mm 5 m/S 713 mmHg 10%
    19:00 +32°C° 0 mm 5 m/S 713 mmHg 11%
    20:00 +29°C° 0 mm 4 m/S 714 mmHg 12%
    21:00 +28°C° 0 mm 5 m/S 714 mmHg 13%
    22:00 +27°C° 0 mm 5 m/S 714 mmHg 13%
    23:00 +27°C° 0 mm 5 m/S 714 mmHg 13%
    Mehr zeigen